Regional Weather Roundup
Issued by NWS Goodland, KS

Home | Current Version | Previous Version | Text Only | Print | Product List | Glossary On
Versions: 1 2 3 4 5 6 7 8 9 10 11 12 13 14 15 16 17 18 19 20 21 22 23 24 25 26 27 28 29 30 31 32 33 34 35 36 37 38 39 40 41 42 43 44 45 46 47 48 49 50
000
ASUS43 KGLD 231459
RWRGLD

GOODLAND FORECAST AREA HOURLY WEATHER ROUNDUP
NATIONAL WEATHER SERVICE GOODLAND KS
900 AM MDT WED APR 23 2014

...OFFICIAL OBSERVATIONS...

CITY           SKY/WX    TMP DP  RH WIND       PRES   REMARKS
GOODLAND KS    CLOUDY    65  44  46 S18       29.60F
HILL CITY KS   PTSUNNY   69  48  47 S29G36    29.63F
IMPERIAL NEB   CLOUDY    63  45  51 N6        29.54S
MCCOOK NEB     CLOUDY    65  45  48 S13       29.56F
AKRON CO       CLOUDY    66  33  29 W21G30    29.61R
BURLINGTON CO  CLOUDY    66  43  43 SW24      29.63F
LIMON CO       PTSUNNY   64  36  35 S14G20    29.66F
$$

...UNOFFICIAL OBSERVATIONS...

CITY           SKY/WX    TMP DP  RH WIND       PRES   REMARKS
COLBY KS       SUNNY     66  46  48 S24G31    29.60F
LENORA KS        N/A     67  32  27 SE26G33     N/A
LEOTI KS         N/A     67  32  27 S14         N/A
NORTON KS      SUNNY     63  46  55 SE18G29   29.60F
SHARON SPRINGS   N/A     64  46  53 S17G26      N/A
WAKEENEY KS      N/A     67  44  43 MISG        N/A
TRENTON NEB      N/A     65  32  29 S12         N/A
KIT CARSON CO    N/A     64  44  49 MISG        N/A
$$



USA.gov is the U.S. government's official web portal to all federal, state and local government web resources and services.